Regional Weather Roundup
Issued by NWS

Home | Current Version | Previous Version | Text Only | Print | Product List | Glossary Off
Versions: 1 2 3 4 5 6 7 8 9 10 11 12 13 14 15 16 17 18 19 20 21 22 23 24 25 26 27 28 29 30 31 32 33 34 35 36 37 38 39 40 41 42 43 44 45 46 47 48 49 50

000
ASUS43 KBIS 282001
RWRND

NORTH DAKOTA REGIONAL WEATHER ROUNDUP
NATIONAL WEATHER SERVICE BISMARCK ND
200 PM CST WED JAN 28 2015

NOTE: "FAIR" INDICATES FEW OR NO CLOUDS BELOW 12,000 FEET WITH NO
SIGNIFICANT WEATHER AND/OR OBSTRUCTIONS TO VISIBILITY.


NDZ001>003-009>011-017-282100-
NORTHWEST NORTH DAKOTA

CITY           SKY/WX    TMP DP  RH WIND       PRES   REMARKS
WILLISTON      CLOUDY    32  28  85 NW18G26   30.04R
MINOT          CLOUDY    28  26  92 NW18      29.91R FOG     WCI  15
MINOT AFB      FRZ DRZL  28  28 100 N14       29.92R FOG     WCI  17
$$

NDZ018>021-031>035-040>046-282100-
SOUTHWEST NORTH DAKOTA

CITY           SKY/WX    TMP DP  RH WIND       PRES   REMARKS
BISMARCK       CLOUDY    33  31  92 NW18G28   29.85R
DICKINSON      CLOUDY    32  29  88 NW26G32   29.93R FOG     WCI  18
GARRISON         N/A     31  29  92 N17       29.89R WCI  19
HETTINGER ARPT CLOUDY    45  33  63 NW33G39   29.89R
$$

NDZ004>008-012>016-024-026-027-054-282100-
NORTHEAST NORTH DAKOTA

CITY           SKY/WX    TMP DP  RH WIND       PRES   REMARKS
GRAND FORKS    CLOUDY    34  32  92 W6        29.77R FOG
GRND FRKS AFB  CLOUDY    33  32  94 NW6       29.78R FOG
DEVILS LAKE    CLOUDY    30  28  93 N17       29.79R WCI  18
$$

NDZ022-023-025-028>030-036>039-047>053-282100-
SOUTHEAST NORTH DAKOTA

CITY           SKY/WX    TMP DP  RH WIND       PRES   REMARKS
FARGO          CLOUDY    36  32  85 S10       29.75F FOG
JAMESTOWN      CLOUDY    32  31  96 N15       29.75R FOG
$$



USA.gov is the U.S. government's official web portal to all federal, state and local government web resources and services.